This is the latest recevied weather packets stored in our database for station/object DB0NH-2. If no packets are shown the sender has not sent any weather packets the latest 1 day(s).
| Time | Temp. | Humidity | Pressure | Rain* | Wind** | Luminosity | Snow |
|---|---|---|---|---|---|---|---|
| 1777971367 | 16.11° C | 79% | 1009.4 hPa | 0 mm | 1.34 m/s, 46° | 394 W/m² | - |
| 1777970768 | 16.11° C | 76% | 1009.3 hPa | 0 mm | 1.34 m/s, 50° | 670 W/m² | - |
| 1777970167 | 15.56° C | 82% | 1009.4 hPa | 0 mm | 1.34 m/s, 56° | 535 W/m² | - |
| 1777969567 | 15.56° C | 82% | 1009.5 hPa | 0 mm | 0.89 m/s, 41° | 394 W/m² | - |
| 1777968968 | 14.44° C | 83% | 1009.6 hPa | 0 mm | 1.34 m/s, 63° | 364 W/m² | - |
| 1777968368 | 14.44° C | 84% | 1009.5 hPa | 0 mm | 1.34 m/s, 40° | 272 W/m² | - |
| 1777967767 | 14.44° C | 83% | 1009.7 hPa | 0 mm | 0.45 m/s, 44° | 191 W/m² | - |
| 1777966567 | 14.44° C | 84% | 1009.7 hPa | 0 mm | 0.45 m/s, 44° | 161 W/m² | - |
| 1777965968 | 14.44° C | 84% | 1009.7 hPa | 0 mm | 0.45 m/s, 46° | 200 W/m² | - |
| 1777965367 | 14.44° C | 84% | 1009.6 hPa | 0 mm | 0.45 m/s, 62° | 213 W/m² | - |
| 1777964767 | 13.89° C | 83% | 1009.7 hPa | 0 mm | 0.89 m/s, 70° | 199 W/m² | - |
| 1777964167 | 13.89° C | 83% | 1009.7 hPa | 0 mm | 0.45 m/s, 70° | 133 W/m² | - |
| 1777963567 | 13.89° C | 83% | 1009.7 hPa | 0 mm | 0.45 m/s, 58° | 123 W/m² | - |
| 1777962967 | 13.89° C | 83% | 1009.7 hPa | 0 mm | 0.45 m/s, 66° | 99 W/m² | - |
| 1777962367 | 13.33° C | 83% | 1009.7 hPa | 0 mm | 0.89 m/s, 58° | 165 W/m² | - |
| 1777961767 | 13.33° C | 84% | 1009.6 hPa | 0 mm | 0.89 m/s, 59° | 127 W/m² | - |
| 1777961167 | 13.33° C | 84% | 1009.5 hPa | 0 mm | 1.34 m/s, 66° | 125 W/m² | - |
| 1777960567 | 13.33° C | 84% | 1009.5 hPa | 0 mm | 1.34 m/s, 77° | 107 W/m² | - |
| 1777959967 | 13.33° C | 84% | 1009.5 hPa | 0 mm | 1.34 m/s, 74° | 85 W/m² | - |
| 1777959367 | 12.78° C | 84% | 1009.6 hPa | 0 mm | 1.34 m/s, 64° | 75 W/m² | - |
| 1777958767 | 13.33° C | 84% | 1009.6 hPa | 0 mm | 1.34 m/s, 62° | 58 W/m² | - |
| 1777958167 | 13.33° C | 83% | 1009.4 hPa | 0 mm | 1.34 m/s, 79° | 66 W/m² | - |
| 1777957567 | 12.78° C | 84% | 1009.5 hPa | 0 mm | 0.45 m/s, 82° | 54 W/m² | - |
| 1777956967 | 12.78° C | 84% | 1009.5 hPa | 0 mm | 1.34 m/s, 64° | 42 W/m² | - |
| 1777956367 | 12.78° C | 83% | 1009.4 hPa | 0 mm | 1.34 m/s, 67° | 36 W/m² | - |
* Rain latest hour (hover to see other rain measurements)
** Current wind speed in m/s (hover to see current wind gust speed)